User: anonymous
Location: Nirvana
(45.0297°N, 77.2628°W)
Time: 03:05:01
(UTC-04:00)
Language:

H-2A R/B - Orbit

View from above orbital plane
View from above orbital plane
View from above satellite
View from above satellite

Ground track
Ground track

The orbit data is extracted from the following two-line orbital elements,

1 27601U 02056E   14237.30369536  .00000138  00000-0  65914-4 0  1657
2 27601 098.4791 318.3585 0073687 095.2558 311.8526 14.31399730610883
Epoch (UTC): 25 August 2014 07:17:19
Eccentricity: 0.0073687
inclination: 98.4791°
perigee height: 734 km
apogee height: 840 km
right ascension of ascending node: 318.3585°
argument of perigee: 95.2558°
revolutions per day: 14.31399730
mean anomaly at epoch: 311.8526°
orbit number at epoch: 61088

The dashed part of the orbit path shows where the satellite is in the earth's shadow,  

DLR